Regional Weather Roundup
Issued by NWS

Home | Current Version | Previous Version | Graphics & Text | Print | Product List | Glossary On
Versions: 1 2 3 4 5 6 7 8 9 10 11 12 13 14 15 16 17 18 19 20 21 22 23 24 25 26 27 28 29 30 31 32 33 34 35 36 37 38 39 40 41 42 43 44 45 46 47 48 49 50
000
ASUS45 KPSR 270000
RWRAZ

PRELIMINARY ARIZONA REGIONAL HOURLY WEATHER ROUNDUP
NATIONAL WEATHER SERVICE PHOENIX AZ
500 PM MST WED NOV 26 2014

NOTE: FAIR INDICATES FEW OR NO CLOUDS BELOW 12,000 FEET WITH NO
SIGNIFICANT WEATHER AND/OR OBSTRUCTIONS TO VISIBILITY.

AZZ001>003-036-270100-
NORTHWEST ARIZONA

CITY           SKY/WX    TMP DP  RH WIND       PRES   REMARKS
KINGMAN        CLEAR     63  16  16 NE7       30.32R
6HR MIN TEMP:  57; 6HR MAX TEMP:  68;

$$

AZZ004>008-015-016-018-270100-
NORTH CENTRAL ARIZONA

CITY           SKY/WX    TMP DP  RH WIND       PRES   REMARKS
GRAND CANYON   CLEAR     55  16  21 NW5       30.44R
6HR MIN TEMP:  55; 6HR MAX TEMP:  62;

PRESCOTT       CLEAR     67  18  15 CALM      30.34S
6HR MIN TEMP:  58; 6HR MAX TEMP:  69;

FLAGSTAFF      NOT AVBL
PAYSON         CLEAR     66  19  16 N9        30.35S
PAGE           CLEAR     55  20  25 CALM      30.35S
6HR MIN TEMP:  48; 6HR MAX TEMP:  58;

$$

AZZ009>014-017-270100-
NORTHEAST ARIZONA

CITY           SKY/WX    TMP DP  RH WIND       PRES   REMARKS
WINSLOW        NOT AVBL
SAINT JOHNS    CLEAR     55  17  22 NW8       30.38S
6HR MIN TEMP:  47; 6HR MAX TEMP:  60;

SHOW LOW       CLEAR     50  16  25 N7        30.44R
$$

AZZ023-270100-
GREATER PHOENIX AREA

CITY           SKY/WX    TMP DP  RH WIND       PRES   REMARKS
PHOENIX        CLEAR     72  15  11 NW3       30.16S
6HR MIN TEMP:  60; 6HR MAX TEMP:  74;

BUCKEYE          N/A     68  27  21 S6        30.18S
GLENDALE       CLEAR     72  19  14 CALM      30.18S
LUKE AFB       CLEAR     71  22  15 SW6       30.16S
6HR MIN TEMP:  60; 6HR MAX TEMP:  72;

DEER VALLEY    CLEAR     71  17  12 CALM      30.17S
6HR MIN TEMP:  61; 6HR MAX TEMP:  72;

SCOTTSDALE     CLEAR     71  15  11 CALM      30.19S
6HR MIN TEMP:  60; 6HR MAX TEMP:  73;

CHANDLER       CLEAR     72  19  14 W8        30.17S
$$

AZZ027-028-270100-
SOUTHWEST MARICOPA COUNTY AND PINAL COUNTY

CITY           SKY/WX    TMP DP  RH WIND       PRES   REMARKS
CASA GRANDE    CLEAR     70  16  12 CALM      30.18S
6HR MIN TEMP:  61; 6HR MAX TEMP:  70;

$$

AZZ503-504-507>509-270100-
SOUTHEAST ARIZONA

CITY           SKY/WX    TMP DP  RH WIND       PRES   REMARKS
TUCSON         CLEAR     72  15  11 N6        30.22R
6HR MIN TEMP:  59; 6HR MAX TEMP:  75;

DAVIS-MONTHAN  CLEAR     68  16  13 NW8       30.19S
6HR MIN TEMP:  59; 6HR MAX TEMP:  73;

RYAN FIELD       N/A     73  25  16 NW12      30.21S
NOGALES        CLEAR     73  19  13 VRB6      30.22S
6HR MIN TEMP:  64; 6HR MAX TEMP:  76;

SIERRA VISTA   CLEAR     66  18  15 E3        30.28S
SAFFORD        CLEAR     64  13  13 W3        30.24R
6HR MIN TEMP:  53; 6HR MAX TEMP:  66;

$$

AZZ020-021-025-026-031-270100-
SOUTHWEST ARIZONA

CITY           SKY/WX    TMP DP  RH WIND       PRES   REMARKS
YUMA           CLEAR     77  16  10 N9        30.16F
6HR MIN TEMP:  67; 6HR MAX TEMP:  79;

$$

CAZ031-033-041-043-047-048-061-270100-
SOUTHERN CALIFORNIA

CITY           SKY/WX    TMP DP  RH WIND       PRES   REMARKS
DOWNTOWN L.A.  CLEAR     79  25  13 W3        30.12F
6HR MIN TEMP:  74; 6HR MAX TEMP:  85;

L.A. AIRPORT   CLEAR     72  28  19 W8        30.13F
6HR MIN TEMP:  72; 6HR MAX TEMP:  79;

SAN DIEGO      CLEAR     80  25  13 NW5       30.12F
6HR MIN TEMP:  75; 6HR MAX TEMP:  80;

BURBANK        CLEAR     84  25  11 SE6       30.14S
6HR MIN TEMP:  71; 6HR MAX TEMP:  85;

ONTARIO        CLEAR     85  20   9 W5        30.15S
6HR MIN TEMP:  74; 6HR MAX TEMP:  87;

RIVERSIDE      CLEAR     87  19   8 CALM      30.14S
6HR MIN TEMP:  68; 6HR MAX TEMP:  90;

PALM SPRINGS   CLEAR     78  21  12 CALM      30.19F
6HR MIN TEMP:  70; 6HR MAX TEMP:  79;

EL CENTRO NAS  CLEAR     77  17  10 W3        30.16F
6HR MIN TEMP:  65; 6HR MAX TEMP:  78;

IMPERIAL       CLEAR     76  26  15 W5        30.16F
6HR MIN TEMP:  66; 6HR MAX TEMP:  77;

BLYTHE         CLEAR     73  26  17 SE5       30.18F
6HR MIN TEMP:  65; 6HR MAX TEMP:  76;

$$

NVZ020-UTZ003-270100-
SOUTHERN NEVADA-UTAH

CITY           SKY/WX    TMP DP  RH WIND       PRES   REMARKS
LAS VEGAS      CLEAR     67  16  14 S5        30.26S
6HR MIN TEMP:  59; 6HR MAX TEMP:  68;

SALT LAKE CITY MOCLDY    57  27  31 S3        30.35S
6HR MIN TEMP:  53; 6HR MAX TEMP:  61;

$$

NMZ009-TXZ055-270100-
NEW MEXICO-WEST TEXAS

CITY           SKY/WX    TMP DP  RH WIND       PRES   REMARKS
ALBUQUERQUE    PTCLDY    58  23  26 N13G23    30.32R
6HR MIN TEMP:  49; 6HR MAX TEMP:  61;

EL PASO        CLEAR     63  19  18 S3        30.26S
6HR MIN TEMP:  54; 6HR MAX TEMP:  67;

$$


........................KEY........................
SKY/WX - SKY CONDITION/WEATHER
TMP    - TEMPERATURE IN FAHRENHEIT
DP     - DEW POINT IN FAHRENHEIT
RH     - RELATIVE HUMIDITY IN PERCENT
WIND   - DIRECTION AND SPEED IN MILES PER HOUR (MPH)
VRB    - VARIABLE WIND DIRECTION
PRES   - MEAN SEA LEVEL PRESSURE IN INCHES OF MERCURY
         F - FALLING PRESSURE   R - RISING PRESSURE
         S - STEADY PRESSURE
VSB    - VISIBILITY IN MILES
HX     - HEAT INDEX IN FAHRENHEIT
WCI    - WIND CHILL INDEX IN FAHRENHEIT
TC     - TEMPERATURE IN CELSIUS WHICH IS ALSO KNOWN AS
         TEMPERATURE IN CENTIGRADE
AFB    - AIR FORCE BASE
         LUKE AFB IS LUKE AIR FORCE BASE
         DAVIS-MONTHAN IS DAVIS-MONTHAN AIR FORCE BASE
NAS    - NAVAL AIR STATION
         EL CENTRO NAS IS EL CENTRO NAVAL AIR STATION
N/A    - NOT AVAILABLE


USA.gov is the U.S. government's official web portal to all federal, state and local government web resources and services.